| time (UTC) | temp F | wind direction | speed MPH | gust MPH | rain 1hr in | rain 24hr in | rain mn in | humidity % | barometer mb |
| 20260509214520 | 88 | 346 | 6.0 | 11.0 | 0.00 | 0.00 | 0.00 | 22 | 1008.1 |
| 20260509213026 | 89 | 286 | 4.0 | 9.0 | 0.00 | 0.00 | 0.00 | 21 | 1008.2 |
| 20260509211549 | 89 | 321 | 5.0 | 12.0 | 0.00 | 0.00 | 0.00 | 21 | 1008.2 |
| 20260509210026 | 89 | 294 | 7.0 | 11.0 | 0.00 | 0.00 | 0.00 | 21 | 1008.3 |
| 20260509204503 | 90 | 306 | 4.0 | 13.0 | 0.00 | 0.00 | 0.00 | 23 | 1008.3 |
| 20260509203006 | 89 | 331 | 2.0 | 16.0 | 0.00 | 0.00 | 0.00 | 24 | 1008.5 |
| 20260509201505 | 88 | 305 | 1.0 | 5.0 | 0.00 | 0.00 | 0.00 | 24 | 1008.6 |
| 20260509200012 | 87 | 291 | 1.0 | 9.0 | 0.00 | 0.00 | 0.00 | 27 | 1008.7 |
| 20260509194505 | 88 | 343 | 4.0 | 14.0 | 0.00 | 0.00 | 0.00 | 26 | 1009.0 |
| 20260509193006 | 87 | 269 | 5.0 | 11.0 | 0.00 | 0.00 | 0.00 | 26 | 1009.1 |
| 20260509191507 | 86 | 218 | 5.0 | 14.0 | 0.00 | 0.00 | 0.00 | 26 | 1009.4 |
| 20260509190012 | 85 | 257 | 5.0 | 14.0 | 0.00 | 0.00 | 0.00 | 27 | 1009.5 |
| 20260509184516 | 84 | 171 | 5.0 | 15.0 | 0.00 | 0.00 | 0.00 | 27 | 1010.0 |
| 20260509183011 | 83 | 290 | 7.0 | 15.0 | 0.00 | 0.00 | 0.00 | 27 | 1010.1 |
| 20260509181505 | 83 | 196 | 6.0 | 18.0 | 0.00 | 0.00 | 0.00 | 29 | 1010.4 |
| 20260509180008 | 82 | 283 | 8.0 | 17.0 | 0.00 | 0.00 | 0.00 | 29 | 1010.9 |
| 20260509174516 | 82 | 259 | 7.0 | 18.0 | 0.00 | 0.00 | 0.00 | 30 | 1011.4 |
| 20260509173021 | 81 | 268 | 7.0 | 16.0 | 0.00 | 0.00 | 0.00 | 31 | 1011.5 |
| 20260509171505 | 80 | 220 | 6.0 | 11.0 | 0.00 | 0.00 | 0.00 | 31 | 1011.7 |
| 20260509170010 | 79 | 240 | 5.0 | 14.0 | 0.00 | 0.00 | 0.00 | 30 | 1012.1 |
| 20260509164512 | 79 | 229 | 7.0 | 20.0 | 0.00 | 0.00 | 0.00 | 32 | 1011.9 |
| 20260509163023 | 77 | 215 | 6.0 | 12.0 | 0.00 | 0.00 | 0.00 | 34 | 1012.2 |
| 20260509161503 | 76 | 246 | 6.0 | 12.0 | 0.00 | 0.00 | 0.00 | 37 | 1012.4 |
| 20260509160008 | 75 | 215 | 6.0 | 11.0 | 0.00 | 0.00 | 0.00 | 38 | 1012.7 |
| 20260509154512 | 74 | 220 | 7.0 | 14.0 | 0.00 | 0.00 | 0.00 | 40 | 1012.9 |
| 20260509153020 | 72 | 232 | 6.0 | 12.0 | 0.00 | 0.00 | 0.00 | 42 | 1013.0 |
| 20260509151522 | 70 | 286 | 7.0 | 11.0 | 0.00 | 0.00 | 0.00 | 43 | 1013.3 |
| 20260509150005 | 69 | 249 | 4.0 | 10.0 | 0.00 | 0.00 | 0.00 | 46 | 1013.4 |
| 20260509144512 | 67 | 306 | 5.0 | 11.0 | 0.00 | 0.00 | 0.00 | 48 | 1013.5 |
| 20260509143017 | 65 | 261 | 5.0 | 11.0 | 0.00 | 0.00 | 0.00 | 49 | 1013.8 |
| 20260509141526 | 64 | 242 | 3.0 | 8.0 | 0.00 | 0.00 | 0.00 | 52 | 1013.8 |
| 20260509140022 | 62 | 206 | 4.0 | 12.0 | 0.00 | 0.00 | 0.00 | 54 | 1014.0 |
| 20260509134509 | 60 | 249 | 4.0 | 9.0 | 0.00 | 0.00 | 0.00 | 59 | 1014.0 |
| 20260509133014 | 58 | 282 | 3.0 | 9.0 | 0.00 | 0.00 | 0.00 | 61 | 1014.0 |
| 20260509131531 | 55 | 266 | 2.0 | 8.0 | 0.00 | 0.00 | 0.00 | 65 | 1013.8 |
| 20260509130023 | 53 | 264 | 3.0 | 7.0 | 0.00 | 0.00 | 0.00 | 71 | 1013.8 |
| 20260509124528 | 49 | 257 | 0.0 | 2.0 | 0.00 | 0.00 | 0.00 | 80 | 1013.7 |
| 20260509123012 | 49 | 281 | 0.0 | 2.0 | 0.00 | 0.00 | 0.00 | 80 | 1013.6 |
| 20260509121516 | 48 | 293 | 0.0 | 0.0 | 0.00 | 0.00 | 0.00 | 81 | 1013.5 |
| 20260509120020 | 48 | 293 | 0.0 | 1.0 | 0.00 | 0.00 | 0.00 | 79 | 1013.4 |
| 20260509114502 | 49 | 267 | 0.0 | 2.0 | 0.00 | 0.00 | 0.00 | 77 | 1013.3 |
| 20260509113002 | 50 | 328 | 0.0 | 3.0 | 0.00 | 0.00 | 0.00 | 73 | 1013.1 |
| 20260509111504 | 52 | 257 | 0.0 | 2.0 | 0.00 | 0.00 | 0.00 | 68 | 1012.9 |
| 20260509110002 | 52 | 243 | 1.0 | 3.0 | 0.00 | 0.00 | 0.00 | 68 | 1012.7 |
| 20260509104503 | 52 | 241 | 1.0 | 2.0 | 0.00 | 0.00 | 0.00 | 66 | 1012.7 |
| 20260509103002 | 53 | 246 | 1.0 | 3.0 | 0.00 | 0.00 | 0.00 | 63 | 1012.9 |
| 20260509101503 | 54 | 229 | 1.0 | 4.0 | 0.00 | 0.00 | 0.00 | 61 | 1013.0 |
| 20260509100004 | 55 | 212 | 1.0 | 6.0 | 0.00 | 0.00 | 0.00 | 59 | 1012.9 |
| 20260509094505 | 55 | 197 | 1.0 | 6.0 | 0.00 | 0.00 | 0.00 | 60 | 1013.1 |
| 20260509093003 | 55 | 204 | 4.0 | 6.0 | 0.00 | 0.00 | 0.00 | 59 | 1013.1 |
| 20260509091505 | 54 | 227 | 3.0 | 6.0 | 0.00 | 0.00 | 0.00 | 60 | 1013.3 |
| 20260509090004 | 54 | 237 | 4.0 | 6.0 | 0.00 | 0.00 | 0.00 | 61 | 1013.2 |
| 20260509084507 | 54 | 224 | 4.0 | 7.0 | 0.00 | 0.00 | 0.00 | 60 | 1013.1 |
| 20260509083004 | 53 | 213 | 2.0 | 6.0 | 0.00 | 0.00 | 0.00 | 61 | 1012.9 |
| 20260509081505 | 53 | 222 | 2.0 | 4.0 | 0.00 | 0.00 | 0.00 | 62 | 1013.3 |
| 20260509080004 | 54 | 223 | 2.0 | 6.0 | 0.00 | 0.00 | 0.00 | 61 | 1013.5 |
| 20260509074504 | 53 | 232 | 3.0 | 5.0 | 0.00 | 0.00 | 0.00 | 62 | 1013.5 |
| 20260509073006 | 53 | 224 | 2.0 | 4.0 | 0.00 | 0.00 | 0.00 | 62 | 1013.6 |
| 20260509071504 | 53 | 211 | 2.0 | 5.0 | 0.00 | 0.00 | 0.00 | 62 | 1013.6 |
| 20260509070005 | 52 | 211 | 1.0 | 4.0 | 0.00 | 0.00 | 0.00 | 63 | 1013.6 |
| 20260509064504 | 53 | 213 | 0.0 | 2.0 | 0.00 | 0.00 | 0.00 | 64 | 1013.7 |
| 20260509063003 | 53 | 215 | 1.0 | 4.0 | 0.00 | 0.00 | 0.00 | 64 | 1013.9 |
| 20260509061505 | 52 | 213 | 1.0 | 3.0 | 0.00 | 0.00 | 0.00 | 68 | 1014.1 |
| 20260509060007 | 51 | 214 | 1.0 | 3.0 | 0.00 | 0.00 | 0.00 | 69 | 1014.1 |
| 20260509054504 | 51 | 218 | 0.0 | 2.0 | 0.00 | 0.00 | 0.00 | 69 | 1014.2 |
| 20260509053011 | 51 | 211 | 2.0 | 3.0 | 0.00 | 0.00 | 0.00 | 68 | 1014.2 |
| 20260509051507 | 52 | 231 | 0.0 | 2.0 | 0.00 | 0.00 | 0.00 | 67 | 1013.9 |
| 20260509050012 | 52 | 231 | 0.0 | 2.0 | 0.00 | 0.00 | 0.00 | 65 | 1013.8 |
| 20260509044513 | 53 | 246 | 0.0 | 2.0 | 0.00 | 0.00 | 0.00 | 65 | 1014.0 |
| 20260509043022 | 54 | 333 | 0.0 | 2.0 | 0.00 | 0.00 | 0.00 | 61 | 1013.9 |
| 20260509041510 | 55 | 38 | 0.0 | 2.0 | 0.00 | 0.00 | 0.00 | 58 | 1013.9 |
| 20260509040010 | 57 | 38 | 0.0 | 0.0 | 0.00 | 0.00 | 0.00 | 57 | 1013.7 |
| 20260509034513 | 58 | 38 | 0.0 | 1.0 | 0.00 | 0.00 | 0.00 | 52 | 1013.6 |
| 20260509033010 | 58 | 38 | 0.0 | 1.0 | 0.00 | 0.00 | 0.00 | 53 | 1013.6 |
| 20260509031513 | 59 | 38 | 0.0 | 0.0 | 0.00 | 0.00 | 0.00 | 53 | 1013.5 |
| 20260509030011 | 61 | 38 | 0.0 | 0.0 | 0.00 | 0.00 | 0.00 | 48 | 1013.3 |
| 20260509024508 | 62 | 38 | 0.0 | 1.0 | 0.00 | 0.00 | 0.00 | 47 | 1013.1 |
| 20260509023017 | 63 | 26 | 0.0 | 2.0 | 0.00 | 0.00 | 0.00 | 45 | 1012.8 |
| 20260509021510 | 64 | 46 | 0.0 | 0.0 | 0.00 | 0.00 | 0.00 | 44 | 1012.8 |
| 20260509020006 | 66 | 46 | 0.0 | 2.0 | 0.00 | 0.00 | 0.00 | 41 | 1012.8 |
| 20260509014506 | 68 | 22 | 0.0 | 0.0 | 0.00 | 0.00 | 0.00 | 38 | 1012.7 |
| 20260509013035 | 70 | 11 | 0.0 | 2.0 | 0.00 | 0.00 | 0.00 | 36 | 1012.9 |
| 20260509011520 | 71 | 24 | 0.0 | 3.0 | 0.00 | 0.00 | 0.00 | 34 | 1012.7 |
| 20260509010003 | 72 | 11 | 1.0 | 4.0 | 0.00 | 0.00 | 0.00 | 32 | 1012.6 |
| 20260509004517 | 73 | 10 | 4.0 | 10.0 | 0.00 | 0.00 | 0.00 | 31 | 1012.6 |
| 20260509003010 | 74 | 32 | 2.0 | 8.0 | 0.00 | 0.00 | 0.00 | 32 | 1012.5 |
| 20260509001519 | 74 | 14 | 5.0 | 9.0 | 0.00 | 0.00 | 0.00 | 31 | 1012.4 |
| 20260509000016 | 75 | 336 | 3.0 | 8.0 | 0.00 | 0.00 | 0.00 | 30 | 1012.4 |
| 20260508234505 | 75 | 28 | 7.0 | 12.0 | 0.00 | 0.00 | 0.00 | 29 | 1012.5 |
| 20260508233008 | 76 | 17 | 3.0 | 6.0 | 0.00 | 0.00 | 0.00 | 29 | 1012.4 |
| 20260508231518 | 76 | 24 | 7.0 | 13.0 | 0.00 | 0.00 | 0.00 | 29 | 1012.2 |
| 20260508230035 | 77 | 23 | 4.0 | 10.0 | 0.00 | 0.00 | 0.00 | 29 | 1012.2 |
| 20260508224522 | 77 | 22 | 3.0 | 10.0 | 0.00 | 0.00 | 0.00 | 30 | 1012.3 |
| 20260508223011 | 76 | 352 | 5.0 | 10.0 | 0.00 | 0.00 | 0.00 | 30 | 1012.3 |
| 20260508221514 | 76 | 18 | 5.0 | 10.0 | 0.00 | 0.00 | 0.00 | 30 | 1012.5 |
| 20260508220019 | 75 | 344 | 6.0 | 11.0 | 0.00 | 0.00 | 0.00 | 32 | 1012.6 |